Location: Dumpton Point
(51.3500°N, 1.4433°E)
Time: 13:46:28
(UTC+00:00)

A-11 Canister half - Pass Details

Date: 06 December 2023
Orbit: 1526 x 1682 km, 47.3° (Epoch: 29 February)

Event Time Altitude Azimuth Distance (km) Brightness Sun altitude
Rises 17:41:30 0° 206° (SSW) 4,911 12.3 -16.8°
Reaches altitude 10° 17:45:04 10° 197° (SSW) 3,933 11.5 -17.4°
Maximum altitude 17:53:37 33° 139° (SE) 2,572 9.9 -18.7°
Enters shadow 17:58:01 23° 100° (E) 2,999 10.0 -19.3°
